Powrót do katalogu

STARLINK-35963

AktywnyŁącznośćVLEO
NORAD 66585·PAYLOAD·🇺🇸 United States

Wystrzelony Nov 21, 2025 z Cape Canaveral Space Force Station

Loading…

Następne Przeloty (najbliższe 24 godziny)

TLE

ŚwieżeSource: CelesTrak SupGP

Epoka: Sep 15, 2026, 02:50 UTC

1 66585C 25268AE  26258.11854167  .00034221  00000+0  12391-2 0  2586
2 66585  43.0018 357.6277 0001502 268.7888 186.9494 15.27570786    10

Śledź STARLINK-35963 w czasie rzeczywistym z AllMySat

Download on the App Store